SCP
0 0 0 0 0 0 0 0 0 0 0 0 0 0 0 0 0 0 0 0 0 0 0 0 0 0 0 0 0 0 0 0 0 0 0 0 0 0 -0 0 0 0 0 -0 -0
0 0 0 0 0 0 0 0 0 0 0 0 0 0 -0 0 0 0 0 0 0 0 0 0 0 0 0 0 0 0 0 0 0 0 0 0 0 0 0 0 0 0 0 0 -0
0 0 0 0 0 0 0 0 0 0 0 0 0 0 0 0 0 0 0 0 0 0 0 0 0 0 0 0 0 0 0 0 0 0 0 0 0 0 0 0 0 0 0 0 0
0 0 0 0 0 0 0 0 0 0 0 0 0 0 0 0 0 0 0 0 0 0 0 0 0 0 0 0 0 0 0 0 0 0 0 0 0 0 0 0 0 0 0 0 0
0 0 0 0 0 0 0 0 0 0 0 0 0 0 0 0 0 0 0 0 0 0 0 0 0 0 0 0 0 0 0 0 0 0 0 0 0 0 0 0 0 0 0 0 0
0 0 0 0 0 0 0 0 0 0 0 0 0 0 0 0 0 0 0 0 0 0 0 0 0 0 0 0 0 0 0 0 0 0 0 0 0 0 0 0 0 0 0 0 0
0 0 0 0 0 0 0 0 0 0 0 0 0 0 0 0 0 0 0 0 0 0 0 0 0 0 0 0 0 0 0 0 0 0 0 0 0 0 0 0 0 0 0 0 0
0 0 0 0 0 0 0 0 -0 0 0 0 0 0 0 0 0 0 0 0 0 0 0 0 0 0 0 0 0 0 0 0 0 0 0 0 0 0 0 0 0 0 0 0 0
0 0 0 0 0 0 0 0 0 0 0 0 0 0 0 0 0 0 0 0 0 0 0 0 0 0 0 0 0 0 0 0 0 0 0 0 0 0 0 0 0 0 0 0 0
0 0 0 0 0 0 0 0 0 0 0 0 0 0 0 0 0 0 0 0 0 0 0 0 0 0 0 0 0 0 0 0 0 0 0 -0 -0 -0 0 0 0 0 0 0 0
-0 -0 0 0 0 0 0 0 0 0 0 0 0 0 0 0 0 0 0 0 0 0 0 0 0 0 0 0 0 0 0 0 0 0 0 0 -0 -0 -0 -0 0 0 0 0 0
0 0 -0 0 0 0 0 0 0 0 0 0 0 0 0 0 0 0 0 0 0 0 0 0 0 -0 -0 -0 0 0 -0 -0 -0 0 0 0 0 -0 -0 0 0 0 0 0 0
-0 -0 -0 0 0 -0 0 0 0 0 0 0 0 0 0 0 0 0 0 0 0 0 -0 0 -0 0 0 0 -0 0 0 -0 -0 -0 0 0 -0 0 0 0 -0 0 0 0 0
-0 -0 0 0 0 -0 0 0 0 0 0 0 0 0 0 0 0 0 -0 0 0 0 0 0 0 0 -0 0 -0 0 0 0 0 0 0 0 -0 0 0 -0 -0 0 0 0 0
0 -0 0 0 0 0 0 0 0 0 0 0 0 0 0 0 0 0 0 0 0 0 0 -0 0 -0 0 0 0 0 0 0 0 0 0 0 0 0 0 -0 -0 0 0 0 0
0 0 0 0 0 0 0 0 0 0 0 0 0 0 0 0 0 -0 -0 0 0 -0 0 0 0 0 0 0 -0 0 0 0 0 0 0 -0 0 -0 0 0 0 0 -0 0 0
0 0 0 0 0 0 0 0 0 0 0 0 0 0 0 -0 0 -0 0 -0 -0 -0 0 0 -0 0 0 0 -0 0 0 0 0 0 0 0 0 -0 -0 0 0 0 -0 0 0
0 0 0 0 0 0 0 0 0 0 0 0 0 -0 -0 -0 -0 0 0 0 0 -0 -0 -0 0 0 0 0 0 0 0 0 0 0 0 0 0 0 0 0 0 0 0 0 0
0 0 0 0 0 0 0 0 0 0 0 0 -0 -0 -0 -0 -0 0 0 0 0 -0 0 0 -0 0 0 0 0 0 0 0 0 0 0 0 0 0 0 0 0 0 -0 0 0
0 0 0 0 0 0 0 0 0 0 0 0 0 0 0 0 0 0 0 0 0 0 -0 0 -0 -0 0 0 0 0 0 0 0 0 0 0 0 0 -0 0 0 0 0 0 0
0 0 0 0 0 0 0 0 0 0 0 0 0 0 0 0 0 0 0 0 0 0 0 0 0 0 0 0 0 0 0 0 0 0 0 0 0 0 0 0 0 0 0 -0 0
0 0 0 0 0 0 0 0 0 0 0 0 0 0 0 0 0 0 0 0 0 0 0 0 0 0 0 0 0 0 0 0 0 0 0 0 0 0 0 0 0 0 -0 0 0
0 0 0 0 0 0 0 0 0 0 0 0 0 0 0 0 0 0 0 0 0 0 0 0 0 0 0 0 0 0 0 0 0 0 0 0 0 0 0 0 0 0 0 0 0
0 -0 0 0 0 0 0 0 0 0 0 0 0 0 0 0 0 0 0 0 0 0 0 0 0 0 0 0 0 0 0 0 0 0 0 0 0 0 0 0 0 0 0 0 -0
-0 -0 0 0 0 0 0 0 0 0 0 0 0 0 0 0 0 0 0 0 0 0 0 0 0 0 0 0 0 0 0 0 0 0 0 0 0 0 0 0 0 0 -0 -0 -0
-0 -0 0 0 0 0 0 0 0 0 0 0 0 0 0 0 0 0 0 0 0 0 0 0 0 0 0 0 0 0 0 0 0 0 0 0 0 0 0 -0 0 -0 -0 -0 -0
-0 -0 -0 0 0 -0 0 0 -0 0 0 0 0 0 -0 0 0 0 0 0 0 0 0 0 0 0 -0 -0 -0 0 -0 -0 0 0 0 0 0 0 0 0 0 -0 -0 -0 -0
Wind_Speed_500mb
25 22 21 26 36 44 39 32 32 24 35 26 9 14 13 13 5 5 6 3 12 7 7 9 8 11 4 4 8 6 2 6 8 9 12 50 22 39 38 30 41 26 18 11 6
30 28 24 27 29 33 44 45 32 31 39 20 16 12 9 7 1 5 6 12 21 13 14 2 4 12 5 4 6 6 4 7 10 16 15 36 28 43 25 41 27 50 38 44 7
30 30 20 29 27 29 35 44 37 18 19 36 21 14 4 3 4 7 8 10 10 19 13 14 5 9 2 7 12 7 8 9 30 46 43 29 40 38 27 11 28 38 55 49 35
33 33 26 23 27 29 35 34 46 39 4 41 27 16 7 11 5 14 10 11 21 19 16 12 6 3 4 4 9 10 23 25 22 42 42 22 38 30 31 39 50 50 50 51 45
32 34 37 33 32 33 33 33 23 50 28 39 23 15 14 6 8 14 8 9 18 23 9 4 4 4 4 8 15 5 7 25 28 31 40 45 31 30 49 48 61 58 56 53 46
29 31 37 37 42 41 41 27 20 23 41 45 34 22 18 3 12 18 7 14 17 18 7 8 7 6 5 6 3 16 31 29 28 32 34 30 39 22 28 53 61 65 64 58 52
29 31 31 37 40 37 36 32 32 26 27 53 39 25 20 11 16 15 17 21 11 15 8 4 3 1 12 10 18 23 13 18 27 31 21 37 42 37 41 47 64 75 73 67 57
28 27 32 38 38 39 35 27 34 40 53 44 35 30 13 24 15 17 23 22 17 15 10 7 4 6 5 9 13 9 7 5 7 19 30 22 42 21 55 57 62 70 69 64 66
26 28 30 35 29 36 20 13 24 60 55 39 41 27 13 31 21 13 20 24 20 10 4 2 6 6 5 4 8 6 7 11 14 10 15 22 35 28 61 55 54 57 61 67 71
23 26 28 27 31 30 25 56 64 57 49 40 30 18 18 16 32 26 22 20 14 13 1 2 1 5 7 8 6 8 11 10 22 8 30 34 36 21 28 40 49 65 57 70 71
22 19 23 22 22 30 40 59 37 17 13 3 26 29 40 32 33 24 26 20 11 6 1 5 7 10 16 15 15 12 18 28 38 30 28 35 41 34 30 40 38 48 55 65 69
15 14 16 17 19 17 15 9 16 24 16 31 26 43 34 33 26 22 24 11 9 6 5 2 13 20 19 17 16 18 20 41 40 31 25 29 42 35 27 37 44 50 52 57 55
16 12 17 16 14 12 11 6 15 27 13 14 23 30 22 18 21 25 26 8 6 8 12 16 15 28 16 17 17 18 18 33 37 42 28 33 33 28 26 43 50 50 50 24 40
13 14 20 11 10 14 12 8 15 13 7 6 6 6 12 13 9 15 25 2 7 7 11 13 17 10 12 18 7 29 16 30 23 12 6 9 11 13 8 18 15 30 29 31 29
11 13 16 17 15 24 2 11 12 2 9 4 10 18 17 4 29 7 18 4 4 4 6 13 8 5 10 15 13 20 21 23 25 9 8 7 7 15 3 9 15 18 36 40 26
9 10 14 27 24 31 31 19 10 8 9 8 9 7 8 6 7 11 5 1 2 6 6 22 12 9 13 14 25 20 10 5 6 2 6 6 10 9 1 9 8 6 27 34 23
18 24 28 23 24 19 15 9 5 10 3 10 9 10 9 9 9 9 7 4 4 2 6 5 9 7 8 11 11 14 9 4 4 3 8 14 8 10 25 29 15 19 33 37 26
25 33 34 23 21 19 15 1 13 9 8 9 10 11 5 11 4 10 8 4 10 8 6 5 13 5 9 7 7 14 5 6 8 2 4 12 4 3 19 32 33 37 46 40 34
34 35 25 21 18 11 1 10 7 4 7 12 20 7 2 13 7 8 9 3 7 16 3 6 8 8 8 5 3 5 7 6 7 5 3 7 3 8 25 30 28 28 36 32 32
40 38 36 23 15 7 8 8 5 11 2 12 7 10 7 9 4 6 5 5 3 7 9 5 8 12 9 3 18 12 9 5 4 10 5 5 3 8 11 13 19 20 28 32 30
13 17 19 25 10 15 10 7 6 13 6 5 7 9 11 9 8 4 7 5 7 7 15 3 2 11 6 7 6 5 10 7 6 6 1 6 4 7 8 9 15 20 29 30 32
18 6 11 20 9 6 4 7 7 8 4 6 9 9 7 7 6 4 6 5 22 8 8 14 6 8 14 4 3 4 12 5 6 12 5 7 6 11 10 11 19 25 24 29 37
9 7 14 23 7 7 5 10 3 11 10 7 5 5 3 4 6 3 5 8 12 7 6 2 6 8 16 11 12 8 22 14 3 5 9 7 5 4 7 13 15 20 21 30 32
5 5 9 9 3 2 5 6 9 8 8 8 4 3 3 2 1 5 4 9 9 9 10 4 0 7 8 11 7 11 17 18 7 8 4 5 8 6 5 8 12 16 19 24 25
7 3 6 6 7 6 8 3 7 9 16 15 11 12 4 4 1 3 5 1 6 6 5 9 1 2 8 9 4 6 9 16 15 8 8 13 10 13 15 13 18 30 26 23 20
5 4 4 9 18 5 8 9 8 5 9 9 9 13 17 9 7 7 9 8 2 10 4 5 4 3 6 8 7 3 12 9 13 14 13 12 8 10 23 31 27 28 26 23 17
10 3 10 10 13 5 5 4 7 3 6 11 6 4 12 5 15 27 29 23 7 3 5 3 4 5 7 9 8 6 3 5 5 8 1 4 4 9 11 17 27 27 25 19 10
Wind_Direction_500mb
336 296 307 285 278 267 259 256 258 313 235 247 257 297 304 317 301 177 159 161 232 288 177 117 83 111 120 243 244 275 263 209 215 240 273 293 315 314 323 346 332 336 310 10 65
316 314 308 290 298 289 261 257 265 274 235 235 262 279 303 333 125 213 252 250 264 241 131 92 303 197 160 184 196 162 212 237 255 285 300 302 328 325 338 331 330 330 2 8 226
320 322 307 304 302 299 284 260 249 242 260 241 250 265 256 157 127 171 197 254 230 160 140 184 206 123 177 249 209 219 218 268 291 293 297 308 312 322 327 310 312 325 322 336 342
321 316 310 298 314 284 284 277 252 236 13 219 229 237 192 165 161 156 171 133 130 133 114 107 140 153 233 249 257 263 273 275 284 290 303 306 310 298 290 287 296 310 306 308 318
313 321 315 308 302 306 309 274 262 241 242 220 207 205 162 176 168 179 194 140 127 115 116 112 86 297 254 338 349 276 260 277 299 315 312 309 295 290 290 291 292 295 292 291 302
303 314 320 315 307 293 295 275 243 247 238 211 224 189 163 157 156 173 203 144 109 114 111 100 39 11 331 300 298 304 314 299 299 296 290 285 290 284 286 292 290 289 287 288 290
302 306 319 319 318 312 305 283 229 209 193 205 198 169 144 161 183 169 166 135 145 135 131 193 193 46 334 327 331 317 312 318 285 282 280 288 273 268 280 281 282 281 282 280 273
305 306 313 320 320 324 295 248 213 192 178 186 163 145 116 164 174 151 149 153 169 171 145 155 258 268 263 283 325 306 308 260 268 249 257 220 258 271 268 255 256 265 273 278 270
305 307 313 322 319 347 2 222 202 162 162 171 153 123 147 165 167 171 143 158 149 168 178 86 359 248 282 65 360 287 253 251 294 266 260 211 261 250 249 245 246 255 259 271 271
306 306 316 324 322 340 128 129 128 139 129 135 136 139 156 171 169 150 149 158 141 162 354 152 67 26 354 83 243 271 284 273 279 299 315 302 291 287 275 248 246 251 257 263 266
308 310 317 330 342 312 107 126 113 101 112 128 172 94 124 134 143 156 157 151 144 175 155 134 56 233 231 214 233 276 280 277 275 279 281 277 283 284 276 279 272 249 252 258 260
350 332 336 352 352 300 2 59 74 130 92 79 91 110 128 119 125 143 158 153 185 211 203 330 258 253 235 256 253 262 284 279 283 275 273 272 276 282 273 259 256 256 254 263 251
359 355 31 18 30 73 52 141 93 117 82 62 95 110 142 149 133 158 168 191 203 228 244 245 250 301 286 289 274 265 252 271 268 289 261 261 278 257 247 237 250 256 254 246 193
10 15 29 48 49 80 104 126 172 121 103 86 124 141 137 131 87 153 163 169 195 249 256 260 258 252 288 279 259 282 235 263 270 284 263 121 291 288 240 226 233 232 228 225 196
12 36 14 66 79 45 281 130 191 351 89 124 116 141 155 103 131 102 170 220 301 287 52 256 322 355 270 241 171 250 309 283 282 242 279 221 249 277 106 247 247 207 192 216 208
326 33 85 84 74 57 103 96 84 47 87 123 128 153 135 175 96 122 100 90 28 336 245 259 296 249 218 254 239 241 304 270 271 223 266 214 138 297 64 303 255 193 204 151 151
93 92 103 89 85 95 98 50 64 73 195 141 147 155 192 152 127 166 156 181 219 18 302 227 218 246 195 280 289 201 257 231 236 221 240 158 119 263 315 315 302 194 142 128 122
104 115 99 98 125 122 139 106 70 75 89 129 123 153 144 141 209 162 140 253 215 232 282 7 330 264 182 241 264 299 294 306 304 303 57 127 266 300 20 43 50 101 114 125 116
114 93 73 88 124 134 227 53 54 75 137 129 143 136 175 176 165 170 212 273 164 193 271 318 279 294 221 221 249 286 280 213 273 215 94 332 32 293 21 33 48 66 80 88 100
91 69 53 85 87 45 40 76 97 209 205 160 155 184 146 182 137 161 188 133 199 185 152 299 297 242 278 282 246 204 322 356 300 337 57 107 11 2 6 25 44 56 66 76 89
61 47 51 88 42 58 68 40 336 6 110 187 17 92 131 148 157 190 210 178 223 201 181 264 264 290 318 201 269 314 303 240 242 155 269 26 23 38 16 63 68 69 69 81 98
59 73 114 7 54 34 44 328 301 282 280 40 65 63 118 150 160 155 152 137 201 192 209 218 223 268 241 262 247 289 282 297 106 316 37 99 16 351 49 73 91 86 88 94 91
61 42 45 17 65 52 2 325 308 347 17 48 68 48 17 88 108 139 127 184 175 221 234 321 273 323 345 359 1 353 335 334 263 50 12 93 334 89 114 80 69 83 85 85 75
48 30 353 20 30 38 113 312 318 331 12 44 51 2 210 246 163 172 195 216 199 209 219 173 61 150 177 229 240 326 336 348 29 66 358 31 120 161 142 124 133 126 100 101 95
23 27 334 309 321 239 161 308 62 15 355 17 14 16 345 101 167 45 317 303 269 257 236 157 224 44 277 272 266 16 353 2 17 324 103 187 144 186 174 172 155 132 123 111 101
24 100 242 283 316 321 357 16 50 23 37 10 51 25 36 81 32 357 351 21 358 319 269 351 270 52 302 314 347 118 7 19 25 11 52 88 61 159 149 142 144 146 141 132 126
87 356 305 316 327 57 298 13 37 80 79 68 336 68 43 333 316 302 302 286 263 281 313 11 106 51 282 339 332 8 352 19 76 44 349 101 182 155 144 142 154 152 155 147 128
Wind_Speed_850mb
25 22 21 26 36 44 39 32 32 24 35 26 9 14 13 13 5 5 6 3 12 7 7 9 8 11 4 4 8 6 2 6 8 9 12 50 22 39 38 30 41 26 18 11 6
30 28 24 27 29 33 44 45 32 31 39 20 16 12 9 7 1 5 6 12 21 13 14 2 4 12 5 4 6 6 4 7 10 16 15 36 28 43 25 41 27 50 38 44 7
30 30 20 29 27 29 35 44 37 18 19 36 21 14 4 3 4 7 8 10 10 19 13 14 5 9 2 7 12 7 8 9 30 46 43 29 40 38 27 11 28 38 55 49 35
33 33 26 23 27 29 35 34 46 39 4 41 27 16 7 11 5 14 10 11 21 19 16 12 6 3 4 4 9 10 23 25 22 42 42 22 38 30 31 39 50 50 50 51 45
32 34 37 33 32 33 33 33 23 50 28 39 23 15 14 6 8 14 8 9 18 23 9 4 4 4 4 8 15 5 7 25 28 31 40 45 31 30 49 48 61 58 56 53 46
29 31 37 37 42 41 41 27 20 23 41 45 34 22 18 3 12 18 7 14 17 18 7 8 7 6 5 6 3 16 31 29 28 32 34 30 39 22 28 53 61 65 64 58 52
29 31 31 37 40 37 36 32 32 26 27 53 39 25 20 11 16 15 17 21 11 15 8 4 3 1 12 10 18 23 13 18 27 31 21 37 42 37 41 47 64 75 73 67 57
28 27 32 38 38 39 35 27 34 40 53 44 35 30 13 24 15 17 23 22 17 15 10 7 4 6 5 9 13 9 7 5 7 19 30 22 42 21 55 57 62 70 69 64 66
26 28 30 35 29 36 20 13 24 60 55 39 41 27 13 31 21 13 20 24 20 10 4 2 6 6 5 4 8 6 7 11 14 10 15 22 35 28 61 55 54 57 61 67 71
23 26 28 27 31 30 25 56 64 57 49 40 30 18 18 16 32 26 22 20 14 13 1 2 1 5 7 8 6 8 11 10 22 8 30 34 36 21 28 40 49 65 57 70 71
22 19 23 22 22 30 40 59 37 17 13 3 26 29 40 32 33 24 26 20 11 6 1 5 7 10 16 15 15 12 18 28 38 30 28 35 41 34 30 40 38 48 55 65 69
15 14 16 17 19 17 15 9 16 24 16 31 26 43 34 33 26 22 24 11 9 6 5 2 13 20 19 17 16 18 20 41 40 31 25 29 42 35 27 37 44 50 52 57 55
16 12 17 16 14 12 11 6 15 27 13 14 23 30 22 18 21 25 26 8 6 8 12 16 15 28 16 17 17 18 18 33 37 42 28 33 33 28 26 43 50 50 50 24 40
13 14 20 11 10 14 12 8 15 13 7 6 6 6 12 13 9 15 25 2 7 7 11 13 17 10 12 18 7 29 16 30 23 12 6 9 11 13 8 18 15 30 29 31 29
11 13 16 17 15 24 2 11 12 2 9 4 10 18 17 4 29 7 18 4 4 4 6 13 8 5 10 15 13 20 21 23 25 9 8 7 7 15 3 9 15 18 36 40 26
9 10 14 27 24 31 31 19 10 8 9 8 9 7 8 6 7 11 5 1 2 6 6 22 12 9 13 14 25 20 10 5 6 2 6 6 10 9 1 9 8 6 27 34 23
18 24 28 23 24 19 15 9 5 10 3 10 9 10 9 9 9 9 7 4 4 2 6 5 9 7 8 11 11 14 9 4 4 3 8 14 8 10 25 29 15 19 33 37 26
25 33 34 23 21 19 15 1 13 9 8 9 10 11 5 11 4 10 8 4 10 8 6 5 13 5 9 7 7 14 5 6 8 2 4 12 4 3 19 32 33 37 46 40 34
34 35 25 21 18 11 1 10 7 4 7 12 20 7 2 13 7 8 9 3 7 16 3 6 8 8 8 5 3 5 7 6 7 5 3 7 3 8 25 30 28 28 36 32 32
40 38 36 23 15 7 8 8 5 11 2 12 7 10 7 9 4 6 5 5 3 7 9 5 8 12 9 3 18 12 9 5 4 10 5 5 3 8 11 13 19 20 28 32 30
13 17 19 25 10 15 10 7 6 13 6 5 7 9 11 9 8 4 7 5 7 7 15 3 2 11 6 7 6 5 10 7 6 6 1 6 4 7 8 9 15 20 29 30 32
18 6 11 20 9 6 4 7 7 8 4 6 9 9 7 7 6 4 6 5 22 8 8 14 6 8 14 4 3 4 12 5 6 12 5 7 6 11 10 11 19 25 24 29 37
9 7 14 23 7 7 5 10 3 11 10 7 5 5 3 4 6 3 5 8 12 7 6 2 6 8 16 11 12 8 22 14 3 5 9 7 5 4 7 13 15 20 21 30 32
5 5 9 9 3 2 5 6 9 8 8 8 4 3 3 2 1 5 4 9 9 9 10 4 0 7 8 11 7 11 17 18 7 8 4 5 8 6 5 8 12 16 19 24 25
7 3 6 6 7 6 8 3 7 9 16 15 11 12 4 4 1 3 5 1 6 6 5 9 1 2 8 9 4 6 9 16 15 8 8 13 10 13 15 13 18 30 26 23 20
5 4 4 9 18 5 8 9 8 5 9 9 9 13 17 9 7 7 9 8 2 10 4 5 4 3 6 8 7 3 12 9 13 14 13 12 8 10 23 31 27 28 26 23 17
10 3 10 10 13 5 5 4 7 3 6 11 6 4 12 5 15 27 29 23 7 3 5 3 4 5 7 9 8 6 3 5 5 8 1 4 4 9 11 17 27 27 25 19 10
Wind_Direction_850mb
336 296 307 285 278 267 259 256 258 313 235 247 257 297 304 317 301 177 159 161 232 288 177 117 83 111 120 243 244 275 263 209 215 240 273 293 315 314 323 346 332 336 310 10 65
316 314 308 290 298 289 261 257 265 274 235 235 262 279 303 333 125 213 252 250 264 241 131 92 303 197 160 184 196 162 212 237 255 285 300 302 328 325 338 331 330 330 2 8 226
320 322 307 304 302 299 284 260 249 242 260 241 250 265 256 157 127 171 197 254 230 160 140 184 206 123 177 249 209 219 218 268 291 293 297 308 312 322 327 310 312 325 322 336 342
321 316 310 298 314 284 284 277 252 236 13 219 229 237 192 165 161 156 171 133 130 133 114 107 140 153 233 249 257 263 273 275 284 290 303 306 310 298 290 287 296 310 306 308 318
313 321 315 308 302 306 309 274 262 241 242 220 207 205 162 176 168 179 194 140 127 115 116 112 86 297 254 338 349 276 260 277 299 315 312 309 295 290 290 291 292 295 292 291 302
303 314 320 315 307 293 295 275 243 247 238 211 224 189 163 157 156 173 203 144 109 114 111 100 39 11 331 300 298 304 314 299 299 296 290 285 290 284 286 292 290 289 287 288 290
302 306 319 319 318 312 305 283 229 209 193 205 198 169 144 161 183 169 166 135 145 135 131 193 193 46 334 327 331 317 312 318 285 282 280 288 273 268 280 281 282 281 282 280 273
305 306 313 320 320 324 295 248 213 192 178 186 163 145 116 164 174 151 149 153 169 171 145 155 258 268 263 283 325 306 308 260 268 249 257 220 258 271 268 255 256 265 273 278 270
305 307 313 322 319 347 2 222 202 162 162 171 153 123 147 165 167 171 143 158 149 168 178 86 359 248 282 65 360 287 253 251 294 266 260 211 261 250 249 245 246 255 259 271 271
306 306 316 324 322 340 128 129 128 139 129 135 136 139 156 171 169 150 149 158 141 162 354 152 67 26 354 83 243 271 284 273 279 299 315 302 291 287 275 248 246 251 257 263 266
308 310 317 330 342 312 107 126 113 101 112 128 172 94 124 134 143 156 157 151 144 175 155 134 56 233 231 214 233 276 280 277 275 279 281 277 283 284 276 279 272 249 252 258 260
350 332 336 352 352 300 2 59 74 130 92 79 91 110 128 119 125 143 158 153 185 211 203 330 258 253 235 256 253 262 284 279 283 275 273 272 276 282 273 259 256 256 254 263 251
359 355 31 18 30 73 52 141 93 117 82 62 95 110 142 149 133 158 168 191 203 228 244 245 250 301 286 289 274 265 252 271 268 289 261 261 278 257 247 237 250 256 254 246 193
10 15 29 48 49 80 104 126 172 121 103 86 124 141 137 131 87 153 163 169 195 249 256 260 258 252 288 279 259 282 235 263 270 284 263 121 291 288 240 226 233 232 228 225 196
12 36 14 66 79 45 281 130 191 351 89 124 116 141 155 103 131 102 170 220 301 287 52 256 322 355 270 241 171 250 309 283 282 242 279 221 249 277 106 247 247 207 192 216 208
326 33 85 84 74 57 103 96 84 47 87 123 128 153 135 175 96 122 100 90 28 336 245 259 296 249 218 254 239 241 304 270 271 223 266 214 138 297 64 303 255 193 204 151 151
93 92 103 89 85 95 98 50 64 73 195 141 147 155 192 152 127 166 156 181 219 18 302 227 218 246 195 280 289 201 257 231 236 221 240 158 119 263 315 315 302 194 142 128 122
104 115 99 98 125 122 139 106 70 75 89 129 123 153 144 141 209 162 140 253 215 232 282 7 330 264 182 241 264 299 294 306 304 303 57 127 266 300 20 43 50 101 114 125 116
114 93 73 88 124 134 227 53 54 75 137 129 143 136 175 176 165 170 212 273 164 193 271 318 279 294 221 221 249 286 280 213 273 215 94 332 32 293 21 33 48 66 80 88 100
91 69 53 85 87 45 40 76 97 209 205 160 155 184 146 182 137 161 188 133 199 185 152 299 297 242 278 282 246 204 322 356 300 337 57 107 11 2 6 25 44 56 66 76 89
61 47 51 88 42 58 68 40 336 6 110 187 17 92 131 148 157 190 210 178 223 201 181 264 264 290 318 201 269 314 303 240 242 155 269 26 23 38 16 63 68 69 69 81 98
59 73 114 7 54 34 44 328 301 282 280 40 65 63 118 150 160 155 152 137 201 192 209 218 223 268 241 262 247 289 282 297 106 316 37 99 16 351 49 73 91 86 88 94 91
61 42 45 17 65 52 2 325 308 347 17 48 68 48 17 88 108 139 127 184 175 221 234 321 273 323 345 359 1 353 335 334 263 50 12 93 334 89 114 80 69 83 85 85 75
48 30 353 20 30 38 113 312 318 331 12 44 51 2 210 246 163 172 195 216 199 209 219 173 61 150 177 229 240 326 336 348 29 66 358 31 120 161 142 124 133 126 100 101 95
23 27 334 309 321 239 161 308 62 15 355 17 14 16 345 101 167 45 317 303 269 257 236 157 224 44 277 272 266 16 353 2 17 324 103 187 144 186 174 172 155 132 123 111 101
24 100 242 283 316 321 357 16 50 23 37 10 51 25 36 81 32 357 351 21 358 319 269 351 270 52 302 314 347 118 7 19 25 11 52 88 61 159 149 142 144 146 141 132 126
87 356 305 316 327 57 298 13 37 80 79 68 336 68 43 333 316 302 302 286 263 281 313 11 106 51 282 339 332 8 352 19 76 44 349 101 182 155 144 142 154 152 155 147 128